Theta_e
308 307 307 307 308 310 310 311 311 312 311 311 311 311 311 312 311 311 311 312 312 315 319 322 326 327 327 327 332 338 342 339 341 341 342 344 343 338 339 342 342 345 346 345
307 308 309 309 310 310 310 310 310 312 312 312 311 311 311 311 311 310 311 312 312 312 313 319 323 324 325 325 327 335 344 341 342 343 344 345 341 341 341 340 340 340 341 344
308 308 309 308 311 312 311 311 313 314 314 312 310 311 311 311 311 310 310 310 311 312 313 315 319 323 324 324 327 332 343 344 344 343 345 344 342 338 338 337 338 337 340 345
307 307 308 311 311 313 313 313 313 314 314 312 310 311 309 309 309 310 310 309 309 309 311 313 317 322 323 326 327 331 336 342 346 345 343 338 335 337 334 333 336 340 342 345
307 307 308 311 313 314 314 312 312 314 314 311 311 307 309 308 309 309 308 309 309 310 311 311 314 318 323 324 329 332 334 336 340 339 336 335 334 331 330 334 335 336 343 346
307 309 310 313 313 312 311 312 312 310 309 311 310 307 308 308 308 308 309 311 311 309 309 311 311 313 316 323 328 332 336 336 336 336 334 333 331 331 338 340 340 346 347 348
310 310 309 312 312 309 308 312 312 314 310 311 309 310 309 310 311 312 313 315 315 315 314 312 311 312 315 324 332 334 335 335 335 334 333 332 330 329 333 340 341 348 348 348
310 310 310 310 309 306 306 309 312 317 316 313 312 313 310 309 316 317 316 314 314 313 314 315 314 311 312 318 330 333 334 334 334 334 333 332 331 332 335 336 341 348 348 347
310 313 310 310 310 309 310 307 309 314 313 312 312 312 311 319 318 316 315 314 313 313 313 316 317 314 316 319 327 331 332 332 332 332 332 333 334 336 335 337 342 348 348 347
311 313 311 311 310 309 311 310 312 312 314 316 315 313 312 319 318 316 314 312 312 312 314 318 317 318 320 320 325 328 330 329 330 331 332 334 335 337 337 338 345 349 348 348
311 310 312 310 310 309 311 312 315 313 316 318 318 314 317 318 317 316 314 314 314 315 317 319 316 321 323 324 327 326 326 328 330 330 333 337 339 340 342 343 345 349 348 347
312 312 313 312 310 309 310 312 312 310 314 315 314 314 315 315 314 314 315 314 314 315 317 317 318 316 331 332 335 335 332 331 331 333 337 341 344 345 346 349 348 348 347 345
313 311 314 310 308 309 312 311 310 312 314 315 316 313 315 316 316 314 316 316 316 318 319 317 317 317 331 333 334 335 334 337 340 342 343 345 346 348 351 350 349 348 347 345
313 312 312 313 312 309 312 313 313 313 318 315 314 315 316 317 317 316 316 316 317 319 319 317 316 317 328 338 337 335 340 342 344 346 348 348 349 350 348 350 349 348 346 346
310 314 313 313 314 314 314 314 312 312 313 316 314 317 316 316 317 316 317 317 319 319 318 318 321 318 334 337 338 341 346 348 348 348 347 346 344 344 346 346 346 346 344 343
310 313 315 315 314 315 316 314 313 311 313 313 313 315 316 315 316 317 318 318 319 321 320 318 318 319 327 333 332 339 346 347 347 345 343 342 341 340 340 341 339 338 337 337
311 313 317 315 314 314 315 312 311 314 315 314 315 315 315 316 316 314 315 317 319 317 316 315 316 317 323 331 330 333 343 345 344 343 342 341 340 339 339 338 337 336 336 335
314 316 315 314 310 314 311 315 315 316 315 312 314 317 315 314 313 312 312 316 314 313 313 313 314 315 320 333 331 334 340 342 342 342 341 340 338 337 337 336 335 335 334 333
311 314 315 315 310 313 313 317 316 315 314 316 316 314 313 313 311 310 312 312 311 310 311 312 313 315 321 330 331 331 336 341 341 341 339 338 337 336 336 335 335 334 334 332
313 314 314 313 315 314 308 316 313 312 315 316 313 313 312 312 313 311 309 310 310 310 312 312 313 314 327 326 327 327 330 339 340 338 337 337 336 335 336 335 335 333 332 332
318 316 316 316 315 314 313 315 313 311 314 315 312 312 311 312 311 310 310 310 310 310 311 312 312 313 319 325 326 327 327 334 337 336 336 336 336 335 334 333 333 332 332 333
310 315 314 314 317 313 315 314 313 310 311 313 311 311 311 311 311 310 310 310 310 310 311 312 312 312 315 323 327 326 328 331 334 336 336 335 335 334 333 334 333 332 333 333
312 312 314 315 311 310 313 314 313 313 314 312 312 311 310 311 311 310 311 311 310 309 310 311 312 312 315 325 331 335 331 333 332 336 336 335 335 334 333 334 334 333 333 332
312 311 312 311 312 312 313 314 313 313 313 313 310 310 309 310 310 311 310 309 310 310 310 311 311 312 315 325 326 331 330 332 335 336 336 335 334 334 334 334 334 333 332 330
308 307 310 311 313 314 314 314 313 313 311 311 310 309 310 311 310 308 308 308 309 310 311 311 311 312 316 324 324 330 331 334 335 335 334 333 332 333 333 333 333 333 333 332
309 311 312 314 314 315 314 313 312 313 312 311 310 311 310 309 308 307 307 307 308 310 311 311 312 315 319 323 323 324 333 334 334 334 334 333 330 330 329 328 327 331 332 332
Wind_Speed
4 4 4 8 7 12 7 9 7 5 6 7 13 19 14 8 6 8 9 9 12 14 18 29 29 33 31 29 20 35 46 44 43 37 36 35 35 37 36 34 28 28 34 34
6 4 6 6 7 6 9 11 12 5 5 8 9 20 17 13 9 8 10 14 11 15 18 19 25 29 33 35 26 34 40 45 46 43 41 32 42 38 33 29 26 29 29 30
3 8 10 8 4 9 6 8 10 13 15 13 8 17 13 13 7 8 8 9 10 12 16 18 21 25 29 31 30 32 42 44 49 49 43 26 22 17 20 20 21 24 25 30
7 7 5 3 2 3 4 7 13 14 9 6 4 15 16 11 8 9 11 11 10 12 13 15 20 21 25 32 33 31 43 48 49 51 43 39 30 21 25 26 24 18 24 28
10 4 7 4 1 2 5 9 13 13 8 7 10 5 14 14 20 18 15 16 19 17 18 17 19 25 34 31 31 29 38 47 48 49 42 37 28 26 27 24 21 25 23 26
10 4 3 6 4 4 7 5 5 5 3 6 8 6 17 12 14 13 13 13 15 19 22 21 23 30 31 32 35 31 32 39 46 43 39 33 30 30 25 20 19 18 24 25
4 3 2 4 3 4 1 3 4 5 3 6 2 6 12 11 11 13 13 13 16 18 21 22 21 18 20 21 30 33 33 35 45 43 40 37 37 34 32 26 22 23 26 26
1 6 4 6 2 4 5 6 4 5 3 10 4 7 7 7 7 8 10 13 15 18 18 22 25 19 23 27 31 32 34 35 42 40 40 40 39 37 34 28 25 28 33 31
2 4 6 8 7 2 4 3 4 3 1 2 4 7 8 2 6 10 11 14 18 20 20 24 25 21 22 29 33 34 35 39 42 46 43 40 39 35 33 26 25 29 34 32
3 8 7 5 6 5 6 4 2 2 3 4 5 7 9 5 10 12 13 15 20 21 21 21 20 22 30 29 35 32 34 37 46 42 42 39 38 34 29 28 27 30 33 31
2 3 4 6 5 5 3 3 1 1 3 3 4 5 6 7 8 11 14 17 19 19 18 19 17 22 15 20 24 29 34 35 31 35 38 31 28 28 29 26 28 32 32 31
3 3 4 10 17 13 7 5 4 4 2 3 4 10 3 5 8 6 11 14 18 19 20 16 20 20 9 5 16 16 21 27 32 33 29 27 26 23 24 28 31 33 33 31
2 2 5 6 5 5 2 3 3 2 1 7 4 6 2 9 9 5 15 19 21 15 13 23 20 19 15 6 7 14 17 24 28 31 29 25 24 25 28 31 32 32 33 33
7 5 7 7 10 5 14 17 14 11 3 6 10 13 11 13 10 8 13 15 15 9 10 21 19 19 14 6 10 15 21 26 29 30 29 25 25 27 29 32 31 33 34 31
5 5 7 14 18 19 20 19 18 16 12 8 10 8 10 13 9 7 8 13 13 15 19 20 18 18 10 5 9 15 22 26 31 28 28 27 28 31 33 32 30 32 31 32
2 6 3 16 17 18 21 20 16 14 10 5 8 9 4 11 9 7 10 13 14 15 13 14 18 20 13 12 17 17 18 24 29 26 26 31 33 36 33 33 31 29 27 28
4 3 3 5 7 12 7 9 8 4 2 3 5 4 4 5 11 9 13 8 9 14 15 17 18 18 16 12 18 21 7 23 28 28 29 30 32 32 34 31 29 26 26 26
7 3 2 5 5 3 5 4 4 3 3 6 6 4 6 9 12 13 12 3 13 15 19 18 15 17 27 15 11 17 23 23 26 28 29 30 32 29 33 32 28 26 25 23
14 5 2 3 2 9 9 3 2 2 5 2 3 4 7 11 15 14 5 12 16 14 14 15 20 22 20 13 18 20 8 23 26 27 27 28 33 31 29 28 26 24 23 26
4 5 3 2 2 4 5 4 4 3 5 4 3 6 6 7 11 17 18 20 21 17 14 15 21 20 14 13 10 5 14 10 22 28 29 30 34 32 29 28 27 26 26 28
3 3 7 7 5 7 6 5 3 4 4 6 6 10 10 8 10 18 20 22 16 17 18 26 22 17 15 13 7 6 14 9 23 29 32 32 34 33 30 26 25 26 27 27
6 4 4 4 5 6 6 4 5 6 5 9 13 13 13 17 17 17 17 19 15 16 17 23 18 19 21 19 3 11 20 18 24 28 28 26 30 27 28 28 26 25 25 24
3 5 2 6 6 6 5 5 7 7 15 10 11 11 10 18 16 21 15 16 16 13 12 22 19 19 21 14 11 8 19 16 23 28 25 26 30 31 30 30 27 24 24 24
4 3 3 7 5 11 15 8 8 7 11 12 7 8 9 17 17 16 18 15 16 12 12 19 16 12 14 15 15 16 15 19 28 26 25 25 29 27 29 28 27 26 23 21
8 9 6 9 14 13 14 6 12 11 11 7 7 10 15 19 19 18 20 19 17 14 16 16 14 14 17 10 14 15 25 20 26 27 25 23 26 29 26 24 21 24 23 26
4 5 6 12 11 10 16 15 15 15 8 7 13 18 15 17 22 20 19 18 15 13 15 14 13 14 17 19 16 30 28 25 30 26 25 25 27 28 28 25 17 17 18 18
Wind_Direction
301 62 268 257 216 239 258 273 295 294 264 276 282 280 288 287 278 293 299 298 294 302 284 266 240 250 261 267 252 222 200 203 203 204 205 213 221 225 229 235 239 239 242 244
8 282 253 259 304 327 324 313 318 315 299 283 285 283 286 280 267 247 274 288 283 286 291 289 264 239 249 256 247 233 214 199 201 202 204 205 213 220 228 238 244 241 240 242
196 250 290 317 349 357 341 325 335 322 317 314 295 279 284 288 277 283 279 278 291 281 288 286 284 265 239 242 238 219 218 206 201 202 203 197 197 204 211 230 247 243 238 234
261 264 306 275 304 74 327 300 304 294 303 287 303 285 290 304 304 305 301 291 282 290 287 289 288 274 246 231 238 227 215 210 204 201 198 197 202 208 235 250 251 255 238 232
246 318 280 276 151 285 260 301 286 288 267 292 269 263 285 298 290 287 286 286 290 293 292 290 291 284 267 250 230 233 227 207 200 199 205 212 217 231 246 248 242 249 237 226
239 251 152 178 225 216 252 289 328 290 214 248 269 204 282 279 275 276 288 286 298 296 283 280 279 278 289 257 237 230 216 210 205 204 211 213 217 226 225 220 226 232 211 203
326 287 215 156 252 303 38 55 327 330 348 246 322 303 253 270 274 294 328 346 326 328 311 287 276 279 288 251 221 214 206 208 208 211 216 217 223 229 230 214 209 200 196 196
290 320 24 354 253 252 302 170 183 271 282 290 293 247 263 296 44 350 350 333 324 321 318 303 287 264 266 260 226 203 195 207 210 215 220 224 226 227 225 213 208 206 200 201
347 253 330 300 306 77 284 250 207 232 323 51 242 276 281 357 330 337 327 321 316 315 316 307 303 279 266 259 225 203 198 203 211 216 220 222 225 222 221 207 208 210 205 202
291 293 216 269 327 299 147 234 298 330 282 268 277 269 262 322 307 316 309 315 311 308 310 309 310 306 272 224 215 203 201 201 210 214 220 221 223 223 221 202 203 206 205 195
323 204 275 327 232 240 301 297 171 130 211 241 300 254 201 247 274 291 314 321 309 306 313 301 308 312 230 196 188 199 208 211 214 215 217 213 217 215 206 200 206 204 198 187
198 242 284 264 274 273 211 209 150 123 269 262 222 274 53 236 249 295 306 312 307 304 300 313 324 327 278 202 160 166 174 187 198 201 200 199 191 184 194 202 198 197 186 185
183 257 302 315 359 10 320 229 212 157 145 220 239 274 262 262 258 296 324 335 315 313 4 311 312 310 281 261 216 177 178 183 183 177 175 173 177 187 193 193 190 183 183 182
174 207 195 248 271 243 284 282 277 246 215 253 255 286 294 295 284 279 328 307 306 352 336 298 295 297 297 259 236 190 173 179 169 167 165 167 178 182 183 179 178 178 176 168
168 239 225 249 265 267 263 277 280 272 260 247 270 239 264 263 253 247 286 309 337 10 290 297 328 316 276 331 330 174 164 161 157 149 146 147 153 156 160 153 157 159 156 162
232 280 265 288 274 266 269 269 272 275 255 264 270 287 277 275 249 297 287 301 318 285 303 320 333 341 324 29 6 341 157 149 145 139 137 138 137 136 141 148 152 151 157 166
238 252 288 267 331 309 290 277 236 215 273 226 265 268 326 315 301 315 295 283 281 310 332 344 342 338 350 22 359 322 202 139 137 136 140 139 139 145 152 154 156 157 158 159
219 183 234 292 341 286 234 25 58 327 214 312 301 270 291 306 303 298 289 309 322 338 331 337 337 343 346 37 1 308 212 146 139 141 140 144 140 145 152 157 157 160 161 163
200 163 234 255 208 271 289 150 132 187 269 260 278 307 316 317 317 308 295 310 315 323 322 318 339 343 341 25 12 39 329 149 140 143 139 142 141 150 154 157 159 161 164 167
95 105 193 202 245 266 250 153 170 109 295 235 275 277 273 313 313 302 320 318 320 327 323 320 334 344 356 31 39 81 279 216 145 143 143 145 151 156 161 161 164 152 160 162
176 222 224 243 249 267 228 178 191 123 266 198 260 290 275 251 256 286 303 302 304 310 312 317 329 328 329 351 340 224 305 249 158 141 146 154 160 160 160 157 156 153 153 156
185 204 219 235 229 266 171 179 179 210 193 235 262 253 263 273 286 289 291 290 298 306 312 316 321 319 327 337 292 267 260 279 149 149 152 149 154 154 157 154 157 159 158 158
277 201 213 214 236 251 215 219 255 276 276 269 229 243 243 277 286 291 289 290 295 302 299 302 304 321 321 323 316 244 253 280 154 152 147 147 153 159 165 159 160 161 163 156
302 337 274 316 273 286 275 259 279 263 255 269 222 228 224 261 278 277 290 291 293 297 290 295 310 303 309 325 358 235 254 267 146 145 144 144 149 147 154 161 163 161 162 156
274 299 265 264 281 294 278 285 299 268 269 242 255 254 261 260 269 277 284 279 278 280 280 290 289 294 302 325 335 274 265 233 142 140 140 137 138 142 145 150 160 169 175 176
209 239 296 285 285 284 291 293 288 283 256 239 265 273 262 258 264 268 267 266 265 269 281 272 277 302 315 333 295 300 252 182 142 136 139 143 139 143 145 143 135 163 169 184